FW1932 Weather Reports


time (UTC)temp
C
wind
direction
speed
KPH
gust
KPH
rain 1hr
cm
rain 24hr
cm
rain mn
cm
humidity
%
barometer
mb
20260906104509 24 129 0.0 3.2 0.00 0.38 0.00 58 1027.0
20260906103004 24 82 0.0 1.6 0.00 0.38 0.00 59 1027.0
20260906101503 23 81 0.0 3.2 0.00 0.38 0.00 60 1027.1
20260906100100 23 82 0.0 1.6 0.00 0.38 0.00 61 1027.3
20260906094558 23 82 0.0 3.2 0.00 0.38 0.00 64 1027.7
20260906093055 22 233 0.0 1.6 0.00 0.38 0.00 65 1027.6
20260906091551 21 233 0.0 3.2 0.00 0.38 0.00 69 1027.8
20260906090049 21 86 0.0 3.2 0.00 0.38 0.00 72 1028.0
20260906084546 20 256 0.0 1.6 0.00 0.38 0.00 73 1028.2
20260906083044 20 246 0.0 3.2 0.00 0.38 0.00 73 1028.1
20260906081542 20 244 0.0 0.0 0.00 0.38 0.00 75 1028.1
20260906080039 19 72 0.0 1.6 0.00 0.38 0.00 75 1028.4
20260906074538 17 72 0.0 1.6 0.00 0.38 0.00 79 1028.4
20260906073041 16 71 0.0 1.6 0.00 0.38 0.00 81 1028.4
20260906071534 14 71 0.0 1.6 0.00 0.38 0.00 86 1028.2
20260906070032 13 70 0.0 0.0 0.00 0.38 0.00 89 1028.2
20260906064532 13 70 0.0 1.6 0.00 0.38 0.00 92 1028.1
20260906063032 13 70 0.0 0.0 0.00 0.38 0.00 93 1028.2
20260906061532 12 70 0.0 0.0 0.00 0.38 0.00 92 1028.2
20260906060035 12 70 0.0 0.0 0.00 0.38 0.00 92 1028.1
20260906054529 12 70 0.0 0.0 0.00 0.38 0.00 93 1028.1
20260906053032 12 70 0.0 0.0 0.00 0.38 0.00 93 1028.2
20260906051529 12 70 0.0 0.0 0.00 0.38 0.00 93 1028.1
20260906050027 12 70 0.0 0.0 0.00 0.38 0.00 92 1028.0
20260906044525 12 70 0.0 0.0 0.00 0.38 0.00 92 1028.0
20260906043027 12 71 0.0 0.0 0.00 0.38 0.00 92 1027.9
20260906041529 12 71 0.0 0.0 0.00 0.38 0.00 92 1027.7
20260906040032 13 71 0.0 0.0 0.00 0.38 0.00 91 1027.7
20260906034528 13 71 0.0 0.0 0.00 0.38 0.00 91 1027.8
20260906033020 13 71 0.0 0.0 0.00 0.38 0.00 92 1027.9
20260906031533 13 71 0.0 1.6 0.00 0.38 0.00 92 1027.8
20260906030018 13 71 0.0 0.0 0.00 0.38 0.00 91 1027.7
20260906024516 13 71 0.0 0.0 0.00 0.38 0.00 92 1027.9
20260906023014 14 70 0.0 0.0 0.00 0.38 0.00 92 1027.9
20260906021515 14 70 0.0 1.6 0.00 0.38 0.00 93 1027.7
20260906020012 14 71 0.0 0.0 0.00 0.38 0.00 92 1027.8
20260906014514 14 71 0.0 0.0 0.00 0.38 0.00 92 1027.7
20260906013010 14 71 0.0 0.0 0.00 0.38 0.00 92 1027.6
20260906011509 15 71 0.0 0.0 0.00 0.38 0.00 92 1027.5
20260906010008 15 71 0.0 0.0 0.00 0.38 0.00 91 1027.5
20260906004506 15 71 0.0 0.0 0.00 0.38 0.00 91 1027.5
20260906003004 15 71 0.0 0.0 0.00 0.38 0.00 91 1027.5
20260906001503 15 71 0.0 0.0 0.00 0.38 0.00 91 1027.5
20260906000001 16 71 0.0 0.0 0.00 0.38 0.00 89 1027.6
20260905234559 16 71 0.0 0.0 0.00 0.38 0.00 89 1027.6
20260905233103 16 71 0.0 0.0 0.00 0.38 0.00 89 1027.6
20260905231616 16 71 0.0 0.0 0.00 0.38 0.00 88 1027.5
20260905230058 16 71 0.0 0.0 0.00 0.38 0.00 88 1027.5
20260905224552 17 71 0.0 1.6 0.00 0.38 0.00 88 1027.3
20260905223050 17 75 0.0 1.6 0.00 0.38 0.00 87 1027.3
20260905221600 17 75 0.0 0.0 0.00 0.38 0.00 84 1027.3
20260905220044 17 72 0.0 1.6 0.00 0.38 0.00 83 1027.4
20260905214543 17 82 1.6 4.8 0.00 0.38 0.38 85 1027.4
20260905213039 18 111 0.0 1.6 0.00 0.38 0.38 86 1027.3
20260905211537 18 111 0.0 0.0 0.00 0.38 0.38 83 1027.1
20260905210035 18 111 0.0 1.6 0.00 0.38 0.38 81 1027.0
20260905204536 19 74 1.6 6.4 0.00 0.38 0.38 81 1027.0
20260905203032 19 78 0.0 3.2 0.00 0.38 0.38 79 1026.9
20260905201532 20 96 0.0 1.6 0.00 0.38 0.38 79 1026.8
20260905200032 20 94 0.0 1.6 0.00 0.38 0.38 80 1026.7
20260905194529 20 76 0.0 1.6 0.00 0.38 0.38 80 1026.5
20260905193032 20 75 0.0 3.2 0.00 0.38 0.38 79 1026.5
20260905191529 20 77 0.0 4.8 0.00 0.38 0.38 78 1026.5
20260905190036 20 257 0.0 0.0 0.00 0.38 0.38 76 1026.3
20260905184526 21 257 0.0 1.6 0.00 0.38 0.38 73 1026.1
20260905183025 21 257 0.0 0.0 0.00 0.38 0.38 72 1025.9
20260905181525 22 257 0.0 0.0 0.00 0.38 0.38 71 1025.8
20260905180030 22 259 0.0 3.2 0.00 0.38 0.38 69 1025.6
20260905174524 23 248 0.0 1.6 0.00 0.38 0.38 67 1025.5
20260905173022 23 253 0.0 3.2 0.00 0.38 0.38 65 1025.4
20260905171528 24 245 1.6 3.2 0.00 0.38 0.38 63 1025.4
20260905170022 24 242 0.0 1.6 0.00 0.38 0.38 61 1025.4
20260905164522 25 248 0.0 6.4 0.00 0.38 0.38 59 1025.4
20260905163021 25 232 0.0 1.6 0.00 0.38 0.38 65 1025.2
20260905161525 25 261 1.6 6.4 0.00 0.38 0.38 63 1025.2
20260905160031 25 248 1.6 8.0 0.00 0.38 0.38 62 1025.3
20260905154519 25 241 0.0 6.4 0.00 0.38 0.38 63 1025.2
20260905153022 25 252 1.6 6.4 0.00 0.38 0.38 63 1025.3
20260905151517 25 258 1.6 3.2 0.00 0.38 0.38 67 1025.4
20260905150017 23 236 1.6 6.4 0.00 0.38 0.38 72 1025.6
20260905144524 23 244 3.2 12.9 0.00 0.38 0.38 71 1025.5
20260905143015 23 243 1.6 11.3 0.00 0.38 0.38 73 1025.5
20260905141516 23 257 1.6 6.4 0.00 0.38 0.38 76 1025.7
20260905140020 22 238 4.8 9.7 0.00 0.38 0.38 78 1025.8
20260905134514 21 231 0.0 4.8 0.00 0.38 0.38 83 1025.8
20260905133020 21 252 1.6 9.7 0.03 0.38 0.38 84 1026.0
20260905131511 20 242 1.6 9.7 0.10 0.38 0.38 85 1025.9
20260905130011 19 233 1.6 11.3 0.15 0.38 0.38 90 1025.8
20260905124511 18 239 4.8 11.3 0.15 0.38 0.38 92 1026.2
20260905123012 18 245 1.6 6.4 0.15 0.36 0.36 92 1026.3
20260905121508 18 253 1.6 9.7 0.08 0.28 0.28 92 1026.2
20260905120014 19 230 3.2 4.8 0.08 0.23 0.23 91 1026.1
20260905114503 19 241 0.0 3.2 0.13 0.23 0.23 91 1026.0
20260905113001 19 219 0.0 0.0 0.23 0.23 0.23 91 1026.1
20260905111653 20 220 0.0 0.0 0.20 0.20 0.20 90 1026.2
20260905110057 20 220 0.0 1.6 0.15 0.15 0.15 87 1026.0